Location: ActonStarParty
(42.4766°N, 71.4538°W)
Time: 06:11:12
(UTC-04:00)

OAO 2 Rocket - Pass Details

Date: 19 April 2018
Orbit: 677 x 746 km, 35.0° (Epoch: 25 May)

Event Time Altitude Azimuth Distance (km) Brightness Sun altitude
Rises 20:55:49 0° 262° (W) 3,137 7.5 -14.9°
Reaches altitude 10° 20:58:29 10° 252° (WSW) 2,204 6.4 -15.3°
Maximum altitude 21:03:00 31° 191° (SSW) 1,228 4.4 -16.0°
Enters shadow 21:04:58 24° 153° (SSE) 1,454 4.4 -16.3°
